Temperature
15 15 15 15 15 15 15 15 15 14 15 15 15 16 16 16 16 16 16 15 15 15 15 15 15 15 15 15 15 15 15 15 15 15 15 15 15 15
15 15 15 15 15 15 15 15 14 14 14 15 15 15 15 15 15 15 15 15 15 15 15 15 15 15 15 15 15 15 15 15 15 15 15 15 14 14
15 15 15 15 15 15 15 14 14 14 14 14 14 14 15 15 15 15 15 15 15 15 15 15 15 15 15 15 15 15 15 15 15 15 15 14 14 14
15 15 15 15 15 14 14 14 14 14 14 14 14 14 14 14 15 14 15 14 14 14 14 14 14 14 14 14 14 14 14 14 14 14 14 14 14 14
15 15 15 15 14 14 14 14 14 14 14 14 14 14 14 14 14 14 14 14 14 14 14 14 14 14 14 14 14 14 14 14 14 14 14 14 14 14
15 15 15 14 14 14 14 14 14 14 14 14 14 14 14 14 14 14 14 14 14 14 14 14 14 14 14 14 14 14 14 14 14 14 13 13 13 13
15 14 14 14 14 14 14 14 14 14 14 14 14 14 14 14 13 13 13 13 13 13 13 13 13 14 13 14 14 13 13 13 13 13 13 13 13 13
15 14 14 14 14 14 14 14 14 14 14 14 13 13 13 13 13 13 13 13 13 13 13 13 13 13 13 13 13 13 13 13 13 13 13 13 13 13
14 14 14 14 14 14 14 14 14 14 14 13 13 13 13 13 13 13 13 13 13 12 13 13 13 13 13 13 13 13 13 12 13 13 13 12 12 12
14 14 14 14 14 14 14 14 14 14 13 13 13 13 13 13 13 13 13 12 12 12 12 12 12 12 12 12 12 12 12 12 12 12 12 12 12 12
13 13 13 14 14 14 14 14 14 13 13 13 13 13 13 13 13 13 12 12 12 12 12 12 12 12 12 12 12 12 12 12 12 12 11 11 11 11
13 13 13 13 13 13 13 14 13 13 13 13 13 13 13 12 12 12 12 12 12 12 11 11 11 11 11 11 11 11 11 11 11 11 11 11 11 11
12 12 12 13 13 13 13 13 13 13 13 13 12 12 12 12 12 12 12 11 11 11 11 11 11 11 11 11 11 10 11 11 11 11 11 11 11 11
12 12 12 12 12 13 13 13 13 12 12 12 12 12 12 12 11 11 11 11 11 11 11 11 11 11 11 10 10 10 10 10 10 10 10 10 10 10
11 11 11 12 12 12 12 12 12 12 12 12 12 11 11 11 11 11 11 11 10 10 10 10 10 10 10 10 9 9 10 9 9 10 10 10 10 9
11 11 11 11 11 11 11 11 11 11 11 11 11 11 10 10 10 10 10 10 10 10 10 9 9 9 9 9 9 9 9 9 9 9 9 9 9 9
10 10 10 10 11 11 11 11 11 11 11 10 10 10 10 10 10 10 10 10 10 9 9 9 9 9 9 8 8 8 8 8 8 8 8 8 8 8
10 10 10 10 10 10 10 10 10 10 10 10 10 10 10 9 9 9 9 9 9 9 8 8 8 8 8 8 7 7 7 7 7 7 7 7 7 7
10 10 10 9 9 9 9 9 9 9 9 9 9 9 9 9 9 8 8 8 8 8 8 8 8 8 8 7 6 7 7 7 7 7 7 6 6 6
9 9 9 9 9 9 9 9 9 9 9 9 9 9 8 8 8 8 8 7 7 7 7 7 7 7 7 6 6 6 6 6 6 6 6 6 5 5
9 9 9 9 9 8 8 8 8 9 9 9 8 8 8 8 7 7 7 7 7 7 7 7 6 6 6 6 6 6 6 6 6 6 6 6 5 5
9 9 9 9 8 8 8 8 8 8 8 8 8 8 7 7 7 7 7 6 6 6 6 6 6 6 6 6 6 5 5 5 5 5 5 5 4 4
9 9 9 9 9 8 8 8 8 8 8 7 7 7 7 6 6 6 6 6 6 6 6 6 6 6 6 6 5 5 5 5 4 4 4 4 4 3
Wind_Speed
5 5 4 3 4 4 4 4 5 3 3 4 3 2 4 8 12 14 15 18 20 19 18 17 16 14 13 11 10 8 6 5 4 4 4 4 4 3
3 4 3 3 3 4 4 4 4 5 4 3 4 3 2 4 9 12 14 15 17 18 19 18 17 17 15 14 12 11 9 8 7 6 5 5 5 4
2 3 3 3 3 3 3 3 4 4 4 3 2 2 2 3 3 7 10 11 11 15 18 19 19 18 17 16 15 14 12 11 10 8 8 7 7 6
2 2 2 2 3 2 3 3 3 4 4 4 2 2 3 3 3 3 4 7 9 12 16 18 19 19 18 17 16 16 15 14 13 11 10 10 10 9
3 3 3 3 2 2 2 2 2 2 3 3 2 2 2 1 0 1 1 1 4 7 11 15 17 18 17 17 17 17 16 16 15 14 14 12 11 11
2 3 3 4 3 3 2 2 2 2 2 2 1 1 1 1 0 1 1 1 2 2 4 7 10 13 15 16 17 17 18 18 17 17 16 16 14 13
3 3 2 4 5 4 3 2 3 2 2 1 1 1 1 0 0 0 1 1 1 1 1 2 3 4 8 13 16 17 18 19 19 19 18 17 17 16
4 3 2 2 3 4 5 4 4 3 3 2 1 1 1 1 0 0 0 1 2 2 1 2 1 3 4 7 11 13 15 16 17 17 17 17 17 16
3 3 2 2 3 3 3 3 2 2 3 4 2 2 1 1 1 1 0 1 2 2 1 2 2 2 3 4 6 7 9 10 11 12 13 13 14 14
3 3 4 3 2 4 4 3 2 2 1 2 2 2 1 1 2 2 1 0 1 2 1 1 2 2 2 3 3 4 4 4 4 5 7 8 10 11
5 4 4 3 2 5 5 5 4 3 3 4 3 3 3 3 3 3 2 2 2 3 2 1 2 3 2 3 4 5 5 4 4 5 5 6 7 8
5 5 6 5 6 7 5 5 5 2 3 4 5 6 5 5 5 3 2 2 1 2 2 2 2 3 3 3 3 6 6 6 6 6 6 6 5 4
4 4 4 7 8 8 6 4 4 4 4 5 5 5 5 5 4 4 2 2 2 1 2 1 2 2 2 3 3 4 5 5 6 7 8 7 5 3
4 3 5 10 11 11 8 8 10 8 6 6 6 5 5 4 4 4 6 6 5 3 3 2 2 2 2 2 3 4 4 5 5 4 7 8 7 6
6 9 11 13 11 10 13 13 9 6 6 6 5 4 3 3 4 4 6 7 9 10 9 6 3 2 2 2 2 3 3 4 5 4 5 5 5 5
7 10 13 15 12 11 10 9 7 6 5 5 4 3 3 4 5 4 4 4 5 6 9 13 9 4 3 3 3 3 4 4 5 5 4 4 7 9
6 7 8 7 8 8 7 7 7 7 6 5 5 5 5 5 5 4 4 4 4 4 5 6 9 10 7 5 4 5 4 4 5 5 4 4 5 7
9 7 7 7 7 6 6 6 6 6 5 5 5 5 5 5 5 5 5 5 5 4 4 4 4 4 4 6 8 5 4 4 4 5 4 3 4 5
9 7 6 6 6 5 5 5 5 5 5 5 5 5 5 4 4 5 4 4 4 4 4 4 4 3 4 3 5 11 5 4 4 4 5 4 3 3
6 6 5 5 5 5 5 4 4 5 5 5 5 5 5 4 4 4 4 4 3 3 4 4 4 3 2 1 2 4 10 6 4 4 4 3 2 3
5 5 5 4 4 4 4 4 5 4 5 4 4 5 4 4 4 4 4 5 4 3 4 4 5 4 1 3 4 4 5 10 8 4 3 3 4 5
4 4 4 4 4 4 4 4 4 4 5 4 4 4 4 4 4 4 4 3 3 3 3 3 5 5 4 5 4 3 4 6 9 12 11 7 2 3
3 3 3 3 3 3 3 4 4 4 4 4 3 3 3 3 3 3 3 4 3 4 4 4 4 5 5 4 4 4 5 5 5 6 7 13 10 7
Wind_Direction
208 201 205 211 203 199 185 174 172 205 253 259 254 247 215 208 211 206 210 216 218 220 222 223 223 224 226 230 234 238 241 243 249 260 269 272 275 279
193 180 189 193 190 189 185 182 177 179 220 253 245 250 225 219 217 210 215 221 222 223 226 228 227 228 228 230 231 232 233 236 240 248 254 257 258 264
192 182 202 192 186 189 180 178 183 177 211 256 256 253 227 230 213 214 221 225 230 232 233 233 231 231 231 232 233 234 235 237 240 245 250 253 253 254
193 178 208 188 188 193 185 195 195 192 197 237 265 261 248 234 220 222 225 226 229 239 239 237 234 233 233 234 236 237 239 241 243 246 250 254 255 256
188 182 191 163 180 181 184 195 201 193 190 207 244 254 275 289 242 257 243 265 247 253 249 244 239 237 236 237 240 242 244 245 247 248 250 253 256 260
187 177 172 159 160 157 154 163 153 146 159 180 226 278 298 337 68 264 305 314 298 295 268 249 240 238 240 243 245 246 248 249 249 250 251 252 255 257
93 93 128 148 148 143 135 138 131 120 113 110 85 38 331 349 290 256 256 315 305 294 285 261 241 241 245 248 248 250 251 251 251 251 252 253 254 256
120 105 95 88 110 107 112 129 142 138 138 127 119 132 275 257 213 88 56 10 325 329 325 297 247 255 254 248 254 257 257 257 256 254 254 254 256 257
136 141 126 94 91 91 84 69 63 97 141 148 149 190 207 211 154 118 183 218 257 298 350 311 319 289 280 266 263 265 262 260 260 259 258 259 260 261
95 130 124 105 107 122 111 86 49 35 83 136 157 181 185 175 159 165 185 262 325 347 23 328 328 315 319 323 326 308 293 282 281 279 277 278 278 275
58 76 98 92 94 125 117 105 75 36 49 85 103 84 82 96 105 80 51 49 21 351 3 1 333 330 337 344 2 13 5 348 324 307 300 298 296 292
51 46 56 74 83 104 109 111 100 65 66 67 55 48 48 49 55 66 86 78 60 1 345 2 348 358 0 352 3 16 14 9 6 358 347 336 327 316
61 43 36 63 75 83 90 93 103 105 89 80 67 52 43 38 31 33 50 98 102 27 332 30 12 14 17 343 353 6 20 13 12 10 8 3 358 348
67 50 51 67 70 70 71 74 83 85 82 76 68 53 40 30 22 29 45 59 71 73 20 45 55 20 20 18 354 347 5 16 16 8 8 13 17 15
69 71 68 64 62 59 59 64 67 72 77 76 69 52 30 19 24 32 35 50 51 45 36 35 46 40 53 46 8 352 352 0 9 8 13 23 24 20
64 63 65 63 59 53 52 52 53 62 76 75 68 47 34 38 38 37 43 38 45 22 20 30 35 49 60 48 53 30 15 4 352 358 15 30 36 34
71 61 56 54 54 49 48 48 47 50 55 50 57 53 45 45 35 29 42 49 55 32 14 12 36 57 59 55 52 32 19 12 358 355 16 38 37 35
75 69 63 59 57 54 54 50 46 45 44 50 53 53 50 48 43 36 46 57 57 39 23 3 8 27 41 47 38 33 19 5 353 2 19 36 41 31
72 67 64 59 54 52 53 56 49 38 42 49 50 46 47 48 50 45 44 50 50 37 17 9 22 49 59 39 15 28 22 360 1 11 15 24 30 13
62 64 58 53 51 50 50 53 50 42 41 42 42 41 44 51 52 48 45 51 49 36 23 17 21 31 73 85 46 6 20 23 17 10 1 4 7 350
59 56 51 49 46 47 49 55 57 51 43 39 36 36 39 51 54 50 51 48 51 43 33 5 338 356 74 70 62 14 360 26 38 27 3 12 4 2
71 64 51 47 46 47 52 58 57 48 39 38 31 30 35 50 59 57 54 50 41 39 31 6 5 34 55 73 71 31 2 5 25 42 43 39 39 9
97 86 65 48 46 51 59 65 66 51 37 31 27 25 36 48 51 55 53 50 47 45 46 39 33 45 52 61 65 43 26 13 7 17 15 24 37 37
Height
1525 1526 1527 1527 1528 1529 1531 1532 1533 1533 1533 1534 1536 1537 1538 1539 1540 1541 1542 1543 1544 1545 1546 1546 1546 1546 1546 1546 1546 1546 1546 1545 1545 1544 1543 1542 1541 1540
1522 1523 1524 1525 1526 1527 1528 1528 1529 1530 1530 1531 1532 1533 1534 1535 1536 1537 1539 1540 1540 1541 1542 1543 1543 1543 1544 1544 1544 1544 1543 1543 1542 1542 1541 1540 1539 1538
1521 1522 1522 1523 1524 1524 1525 1525 1526 1527 1527 1528 1529 1529 1530 1531 1532 1533 1534 1535 1536 1537 1538 1539 1539 1540 1540 1540 1541 1541 1541 1541 1540 1539 1539 1538 1537 1536
1520 1520 1521 1521 1522 1522 1523 1523 1524 1524 1525 1525 1526 1526 1526 1527 1528 1529 1530 1531 1532 1533 1534 1534 1535 1535 1536 1537 1537 1537 1537 1537 1537 1537 1536 1535 1535 1534
1519 1520 1520 1520 1521 1521 1521 1521 1522 1522 1523 1523 1523 1523 1523 1524 1524 1525 1526 1527 1527 1528 1529 1529 1530 1531 1531 1532 1532 1533 1533 1533 1533 1533 1533 1532 1532 1531
1519 1519 1520 1520 1520 1520 1520 1520 1520 1520 1521 1521 1521 1521 1521 1521 1522 1522 1522 1523 1523 1523 1524 1524 1525 1525 1526 1527 1527 1528 1528 1529 1529 1529 1529 1528 1528 1527
1518 1519 1519 1520 1520 1520 1520 1519 1520 1520 1520 1520 1520 1520 1520 1519 1520 1520 1520 1520 1519 1519 1519 1519 1520 1520 1521 1521 1522 1523 1523 1523 1523 1524 1524 1524 1523 1523
1518 1518 1519 1520 1520 1520 1520 1520 1520 1520 1520 1520 1520 1519 1519 1519 1518 1518 1518 1518 1517 1517 1517 1516 1516 1516 1516 1516 1517 1517 1517 1517 1518 1518 1518 1518 1518 1518
1517 1518 1519 1520 1520 1520 1521 1521 1521 1521 1521 1521 1520 1519 1519 1519 1518 1518 1517 1517 1516 1516 1515 1514 1514 1513 1513 1512 1512 1512 1512 1512 1512 1512 1512 1513 1513 1513
1515 1517 1518 1519 1520 1521 1521 1521 1521 1521 1521 1521 1520 1520 1519 1519 1518 1518 1517 1516 1515 1515 1514 1513 1512 1511 1511 1510 1510 1509 1509 1508 1508 1508 1508 1508 1508 1508
1514 1515 1517 1518 1519 1520 1520 1521 1521 1521 1521 1521 1520 1520 1519 1519 1518 1518 1517 1516 1515 1515 1514 1513 1512 1511 1510 1509 1508 1508 1507 1507 1506 1506 1505 1505 1504 1503
1513 1515 1516 1517 1518 1519 1520 1520 1520 1521 1521 1520 1520 1520 1520 1519 1519 1518 1517 1516 1515 1515 1514 1513 1512 1511 1511 1510 1509 1507 1507 1506 1505 1505 1504 1503 1502 1501
1514 1515 1516 1517 1518 1518 1519 1520 1520 1520 1520 1520 1520 1520 1520 1519 1519 1518 1517 1517 1516 1515 1515 1513 1512 1511 1511 1510 1509 1508 1507 1506 1505 1504 1503 1501 1500 1499
1515 1515 1516 1517 1518 1519 1519 1520 1520 1520 1520 1520 1520 1520 1520 1519 1519 1518 1518 1517 1516 1515 1514 1513 1512 1511 1510 1509 1509 1508 1507 1506 1505 1503 1502 1500 1499 1497
1516 1517 1518 1518 1519 1519 1520 1520 1521 1521 1521 1520 1520 1520 1520 1519 1519 1518 1518 1517 1516 1515 1514 1513 1512 1511 1510 1509 1508 1508 1507 1506 1504 1502 1501 1499 1497 1496
1519 1519 1519 1520 1520 1521 1521 1521 1521 1521 1521 1521 1521 1521 1520 1520 1519 1518 1518 1517 1517 1516 1515 1514 1512 1511 1510 1509 1509 1507 1506 1505 1504 1502 1500 1498 1497 1495
1521 1521 1522 1522 1522 1522 1523 1523 1523 1523 1522 1522 1522 1521 1521 1520 1520 1519 1518 1518 1517 1516 1515 1514 1513 1511 1510 1510 1509 1508 1507 1505 1503 1501 1500 1498 1496 1494
1524 1524 1524 1524 1524 1524 1524 1524 1524 1524 1523 1523 1523 1522 1522 1521 1520 1520 1519 1518 1517 1516 1515 1514 1513 1512 1511 1510 1510 1508 1507 1505 1503 1501 1499 1497 1495 1494
1526 1526 1526 1526 1526 1526 1526 1526 1525 1525 1524 1524 1524 1523 1522 1522 1521 1520 1519 1518 1517 1517 1516 1515 1513 1512 1511 1510 1510 1509 1507 1505 1503 1501 1499 1497 1495 1493
1529 1528 1528 1528 1528 1528 1527 1527 1526 1526 1525 1525 1524 1524 1523 1522 1522 1521 1520 1519 1518 1517 1516 1515 1514 1512 1512 1511 1510 1509 1508 1506 1504 1501 1499 1498 1496 1495
1530 1530 1529 1529 1529 1529 1528 1528 1527 1527 1526 1525 1525 1524 1524 1523 1522 1522 1521 1520 1519 1518 1517 1516 1515 1514 1513 1512 1511 1510 1509 1507 1505 1503 1500 1499 1497 1495
1531 1531 1530 1530 1529 1529 1529 1528 1528 1527 1526 1526 1525 1525 1524 1524 1523 1522 1522 1521 1520 1519 1518 1517 1516 1516 1515 1514 1512 1511 1510 1508 1506 1504 1501 1500 1498 1495
1533 1532 1531 1531 1530 1530 1529 1529 1528 1527 1527 1526 1526 1525 1525 1524 1524 1523 1523 1522 1521 1520 1519 1519 1518 1517 1516 1515 1514 1512 1511 1509 1507 1505 1503 1501 1500 1498